Tracking 33744 objects as of 12-Apr-2026
HD Live streaming from Space Station
objects crossing your sky now

STARLINK-37172

Track STARLINK-37172 now!
10-day predictions
STARLINK-37172 is classified as:


NORAD ID: 68395
Int'l Code: 2026-063R
Perigee: 346.9 km
Apogee: 349.0 km
Inclination: 97.3 °
Period: 91.4 minutes
Semi major axis: 6718 km
RCS: Unknown
Launch date: March 26, 2026
Source: United States (US)
Launch site: AIR FORCE WESTERN TEST RANGE (AFWTR)
Your satellite tracking list
Your tracking list is empty




NASA's NSSDC Master Catalog

Two Line Element Set (TLE):
1 68395U 26063R   26102.50001156 -.01449916  00000-0 -10446-1 0  9999
2 68395  97.2845 243.9413 0001520  92.8017 258.8083 15.76340331  3896
Source of the keplerian elements: AFSPC